Location: *
(17.3280°S, 114.7300°W)
Time: 06:20:20
(UTC+00:00)

Cosmos 1689 Rocket - Pass Details

Date: 05 August 2020
Orbit: 366 x 378 km, 97.5° (Epoch: 20 September)

Event Time Altitude Azimuth Distance (km) Brightness Sun altitude
Rises 12:39:27 0° 155° (SSE) 2,264 6.1 -20.1°
Reaches altitude 10° 12:41:35 10° 142° (SE) 1,401 5.2 -19.6°
Maximum altitude 12:44:12 28° 81° (E) 752 4.3 -19.0°
Drops below altitude 10° 12:46:47 10° 19° (NNE) 1,378 5.3 -18.4°
Sets 12:48:52 0° 7° (N) 2,217 6.2 -17.9°
